Beverly, MA

2:42 PM EDT on May 22, 2017 (GMT -0400)
Beverly Municipal

Weather History for KBVY - January, 2014

Change the Weather History Date:

Sunday, January 26, 2014

  Actual Average Record
Temperature  
Mean Temperature 20 °F -  
Max Temperature 25 °F 30 °F 52 °F (2017)
Min Temperature 15 °F 14 °F 7 °F (2015)
Degree Days  
Heating Degree Days 45    
Moisture  
Dew Point 0 °F    
Average Humidity 46    
Maximum Humidity 68    
Minimum Humidity 32    
Precipitation  
Precipitation 0.00 in - - ()
Sea Level Pressure  
Sea Level Pressure 29.69 in    
Wind  
Wind Speed 12 mph (WSW)    
Max Wind Speed 20 mph    
Max Gust Speed 36 mph    
Visibility 10 miles    
Events      
Averages and records for this station are not official NWS values.
T = Trace of Precipitation, MM = Missing Value Source: NWS Daily Summary

Daily Weather History Graph

Daily Weather History Graph

Search for Another Location

Airport or City:

Trip Planner

Search our weather history database for the weather conditions in past years. The results will help you decide how hot, cold, wet, or windy it might be!

Date:

Astronomy

Jan. 26, 2014 Rise Set
Actual Time 7:03 AM EST 4:49 PM EST
Civil Twilight 6:33 AM EST 5:19 PM EST
Nautical Twilight 5:59 AM EST 5:53 PM EST
Astronomical Twilight 5:25 AM EST 6:27 PM EST
Moon 2:37 AM EST (1/26) 12:35 PM EST (1/26)
Length of Visible Light 10h 46m
Length of Day
9h 45m
Waning Crescent, 24% of the Moon is Illuminated
Jan 26
Waning Crescent
Jan 30
New
Feb 6
First Quarter
Feb 14
Full
Feb 22
Last Quarter

Hourly Weather History & Observations

Time (EST) Temp. Windchill Dew Point Humidity Pressure Visibility Wind Dir Wind Speed Gust Speed Precip Events Conditions
12:53 AM 25.0 °F 16.3 °F 15.1 °F 66% 29.31 in 10.0 mi WSW 8.1 mph 19.6 mph N/A   Partly Cloudy
1:53 AM 23.0 °F 11.1 °F 14.0 °F 68% 29.35 in 10.0 mi WSW 12.7 mph 20.7 mph N/A   Clear
2:53 AM 21.9 °F 11.0 °F 12.9 °F 68% 29.38 in 10.0 mi West 10.4 mph - N/A   Clear
3:53 AM 21.9 °F 9.2 °F 12.0 °F 66% 29.42 in 10.0 mi West 13.8 mph - N/A   Clear
4:53 AM 19.9 °F 4.3 °F 3.9 °F 50% 29.46 in 10.0 mi West 19.6 mph 34.5 mph N/A   Clear
5:53 AM 18.0 °F 4.8 °F -4.0 °F 38% 29.52 in 9.0 mi WNW 12.7 mph 34.5 mph N/A   Clear
6:53 AM 16.0 °F 3.6 °F -4.0 °F 41% 29.58 in 10.0 mi West 10.4 mph 19.6 mph N/A   Partly Cloudy
7:53 AM 15.1 °F -0.1 °F -9.9 °F 32% 29.63 in 10.0 mi WNW 15.0 mph 35.7 mph N/A   Clear
8:53 AM 15.1 °F -0.6 °F -9.0 °F 34% 29.69 in 10.0 mi WNW 16.1 mph 32.2 mph N/A   Partly Cloudy
9:53 AM 16.0 °F 0.6 °F -8.0 °F 34% 29.73 in 10.0 mi West 16.1 mph 33.4 mph N/A   Clear
10:53 AM 17.1 °F 3.0 °F -7.1 °F 34% 29.77 in 10.0 mi WSW 13.8 mph 29.9 mph N/A   Scattered Clouds
11:53 AM 17.1 °F 0.6 °F -6.0 °F 36% 29.75 in 10.0 mi West 19.6 mph 28.8 mph N/A   Scattered Clouds
12:53 PM 19.0 °F 4.5 °F -6.0 °F 33% 29.77 in 10.0 mi WNW 16.1 mph 28.8 mph N/A   Scattered Clouds
1:53 PM 19.0 °F 8.2 °F -6.0 °F 33% 29.74 in 10.0 mi West 9.2 mph 19.6 mph N/A   Clear
2:53 PM 18.0 °F 4.2 °F -5.1 °F 36% 29.77 in 10.0 mi West 13.8 mph 20.7 mph N/A   Mostly Cloudy
3:35 PM 19.0 °F 5.0 °F -5.1 °F 34% 29.81 in 10.0 mi West 15.0 mph - N/A   Overcast
3:53 PM 19.0 °F 5.6 °F -4.0 °F 36% 29.81 in 10.0 mi WSW 13.8 mph - N/A   Overcast
4:53 PM 19.0 °F 6.8 °F -2.0 °F 40% 29.82 in 10.0 mi SW 11.5 mph - N/A   Overcast
5:53 PM 18.0 °F 8.7 °F -0.0 °F 45% 29.85 in 10.0 mi WSW 6.9 mph - N/A   Scattered Clouds
6:53 PM 19.0 °F 7.5 °F -2.0 °F 40% 29.86 in 10.0 mi SW 10.4 mph - N/A   Scattered Clouds
7:53 PM 19.0 °F 9.0 °F 1.9 °F 47% 29.88 in 10.0 mi SSW 8.1 mph - N/A   Overcast
8:53 PM 19.0 °F 8.2 °F 3.9 °F 52% 29.87 in 10.0 mi SSW 9.2 mph - N/A   Overcast
9:53 PM 19.9 °F 9.3 °F 6.1 °F 55% 29.87 in 10.0 mi SSW 9.2 mph - N/A   Overcast
10:53 PM 21.0 °F 14.6 °F 9.0 °F 60% 29.86 in 10.0 mi South 4.6 mph - N/A   Overcast
11:53 PM 21.9 °F 14.5 °F 10.9 °F 63% 29.85 in 10.0 mi SSE 5.8 mph - N/A   Overcast